Location: Dillon
(41.1766°N, 107.0923°W)
Time: 10:48:29
(UTC+00:00)

SO-50 - Pass Details

Date: 12 July 2022
Orbit: 584 x 698 km, 64.6° (Epoch: 18 August)

Event Time Altitude Azimuth Distance (km) Brightness Sun altitude
Rises 04:31:45 0° 215° (SW) 2,929 ? -16.5°
Reaches altitude 10° 04:34:00 10° 217° (SW) 2,042 ? -16.8°
Maximum altitude 04:38:39 77° 304° (WNW) 686 ? -17.3°
Drops below altitude 10° 04:43:29 10° 30° (NNE) 2,124 ? -17.8°
Sets 04:45:52 0° 32° (NNE) 3,057 ? -18.1°
